Probability
0 0 1 2 2 4 6 8 7 6 6 7 7 6 4 1 0 0 0 0 0 0 0 0 0 0 0 1 2 2 2 2 3 3 3 3 3 4 7 9 9 11 12 12
0 0 1 3 4 5 6 7 6 5 6 6 5 3 1 0 0 0 0 0 0 0 0 0 0 1 2 4 6 7 4 3 3 3 3 2 2 2 4 6 7 10 11 10
0 0 1 3 3 3 4 4 3 3 3 3 1 0 0 0 0 0 0 0 0 0 0 1 1 2 3 4 8 9 7 5 3 3 2 1 1 2 2 2 4 6 8 7
0 0 1 2 2 1 1 1 1 1 1 0 0 0 0 0 0 0 0 0 0 0 0 1 2 3 2 2 4 6 6 4 2 2 1 1 1 2 2 1 1 2 4 5
0 0 0 1 1 0 0 0 0 0 0 0 0 0 0 0 0 0 0 0 0 0 0 1 4 5 3 1 0 1 2 1 1 0 0 0 1 2 1 1 0 0 1 1
0 0 0 0 0 0 0 0 0 0 0 0 0 0 0 0 0 0 0 0 0 0 1 4 9 11 7 2 0 0 0 0 0 1 1 0 2 3 2 0 0 0 0 0
0 0 0 0 0 0 0 0 0 0 0 0 0 0 0 0 0 0 0 0 0 1 4 10 16 17 12 5 2 2 1 0 0 1 1 1 2 4 3 1 0 0 0 0
0 0 0 0 0 0 0 0 0 0 0 0 0 0 0 0 0 0 0 0 1 2 7 14 17 16 11 6 3 2 1 0 0 1 1 1 2 2 1 0 0 0 0 0
0 0 0 0 0 0 0 0 0 0 0 0 0 0 0 0 0 0 0 0 1 3 7 11 12 10 6 3 2 1 0 0 0 0 0 0 0 0 0 0 0 0 0 0
0 0 0 0 0 0 0 0 0 0 0 0 0 0 0 0 0 0 0 1 2 4 5 6 7 6 3 1 2 1 0 0 0 0 0 0 0 0 0 0 0 0 0 0
0 0 0 0 0 0 0 0 0 0 0 0 0 0 0 0 0 0 0 1 3 4 4 3 3 3 2 1 1 1 0 0 0 0 0 0 0 0 0 0 0 0 0 0
0 0 0 0 0 0 0 0 0 0 0 0 0 0 0 0 0 0 0 1 2 3 2 1 1 1 1 0 0 0 0 0 0 0 0 0 0 0 0 0 0 0 0 0
0 0 0 0 0 0 0 0 0 0 0 0 0 0 0 0 0 0 0 1 1 1 0 0 0 0 0 0 0 0 0 0 0 0 0 0 0 0 0 0 0 0 0 0
0 0 0 0 0 0 0 0 0 0 0 0 0 0 0 0 0 0 0 0 0 0 0 0 0 0 0 0 0 0 0 0 0 0 0 0 0 0 0 0 0 0 0 0
0 0 0 0 0 0 0 0 0 0 0 0 0 0 0 0 0 0 0 0 0 0 0 0 0 0 0 0 0 0 0 0 0 0 0 0 0 0 0 0 0 0 0 0
0 0 0 0 0 0 0 0 0 0 0 0 0 0 0 0 0 0 0 0 0 0 0 0 0 0 0 0 0 0 0 0 0 0 0 0 0 0 0 0 0 0 0 0
0 0 0 0 0 0 0 0 0 0 0 0 0 0 0 0 0 0 0 0 0 0 0 0 0 0 0 0 0 0 0 0 0 0 0 0 0 0 0 0 0 0 0 0
0 0 0 0 0 0 0 0 0 0 0 0 0 0 0 0 0 0 0 0 0 0 0 0 0 0 0 0 0 0 0 0 0 0 0 0 0 0 0 0 0 0 0 0
0 0 0 0 0 0 0 0 0 0 0 0 0 0 0 0 0 0 0 0 0 0 0 0 0 0 0 0 0 0 0 0 0 0 0 0 0 0 0 0 0 0 0 0
0 0 0 0 0 0 0 0 0 0 0 0 0 0 0 0 0 0 0 0 0 0 0 0 0 0 0 0 0 0 0 0 0 0 0 0 0 0 0 0 0 0 0 0
0 0 0 0 0 0 0 0 0 0 0 0 0 0 0 0 0 0 0 0 0 0 0 0 0 0 0 0 0 0 0 0 0 0 0 0 0 0 0 0 0 0 0 0
0 0 0 0 0 0 0 0 0 0 0 0 0 0 0 0 0 0 0 0 0 0 0 0 0 0 0 0 0 0 0 0 0 0 0 0 0 0 0 0 0 0 0 0
0 0 0 0 0 0 0 0 0 0 0 0 0 0 0 0 0 0 0 0 0 0 0 0 0 0 0 0 0 0 0 0 0 0 0 0 0 0 0 0 0 0 0 0
0 0 0 0 0 0 0 0 0 0 0 0 0 0 0 0 0 0 0 0 0 0 0 0 0 0 0 0 0 0 0 0 0 0 0 0 0 0 0 0 0 0 0 0
0 0 0 0 0 0 0 0 0 0 0 0 0 0 0 0 0 0 0 0 0 0 0 0 0 0 0 0 0 0 0 0 0 0 0 0 0 0 0 0 0 0 0 0
0 0 0 0 0 0 0 0 0 0 0 0 0 0 0 0 0 0 0 0 0 0 0 0 0 0 0 0 0 0 0 0 0 0 0 0 0 0 0 0 0 0 0 0
0 0 0 0 0 0 0 0 0 0 0 0 0 0 0 0 0 0 0 0 0 0 0 0 0 0 0 0 0 0 0 0 0 0 0 0 0 0 0 0 0 0 0 0
Wind_Speed
15 17 15 12 9 9 9 10 10 11 8 6 6 8 9 10 12 14 14 13 10 8 8 8 8 8 8 8 8 8 8 9 8 8 8 8 8 8 8 8 10 8 8 8
15 15 11 7 11 11 10 11 11 12 9 7 8 10 12 13 16 17 15 13 12 12 11 10 10 10 9 8 8 8 9 9 9 9 9 9 9 9 8 8 8 7 7 9
13 14 10 7 12 11 11 12 12 13 11 12 13 14 15 17 18 15 13 14 15 14 11 10 10 9 9 9 8 9 9 10 10 9 10 9 10 9 8 8 8 8 8 9
11 11 6 8 9 10 10 11 13 11 12 13 15 16 17 16 12 14 17 17 16 14 14 12 11 10 9 11 10 10 10 10 10 10 10 9 8 9 8 8 8 8 8 9
7 10 3 6 9 11 13 13 11 12 15 17 19 18 15 14 17 18 17 16 15 15 17 13 12 11 11 12 12 12 12 10 10 10 10 10 9 9 8 8 8 9 9 9
8 11 7 7 10 13 13 5 12 16 18 19 20 17 14 18 19 18 16 15 15 16 16 13 11 10 11 14 13 13 12 11 11 10 10 11 10 9 9 8 9 10 10 9
9 10 6 8 13 14 11 11 16 17 17 18 17 17 18 20 19 17 16 16 15 14 13 11 11 10 13 14 13 13 12 11 11 10 10 11 10 9 8 9 10 10 10 9
8 9 6 12 12 10 10 12 15 17 18 19 19 20 21 20 18 18 18 19 18 13 12 10 11 11 12 12 12 12 12 13 12 11 13 13 9 8 8 9 10 10 9 9
5 6 7 9 9 10 11 14 15 17 18 20 21 22 22 20 18 18 19 17 16 16 14 12 11 12 14 13 12 13 13 13 12 13 11 11 10 10 10 8 8 9 7 7
6 6 9 11 12 13 14 15 17 18 19 20 21 22 22 19 17 17 17 16 16 17 17 15 14 14 13 13 13 13 14 13 11 11 12 11 8 9 8 8 8 7 6 5
8 10 11 11 14 15 16 16 18 19 20 21 22 22 21 18 17 17 17 16 16 16 16 17 15 14 15 13 12 14 14 13 12 10 10 9 9 8 9 8 7 6 5 4
7 10 11 14 15 16 17 17 19 20 20 21 21 21 21 19 17 16 18 17 16 17 18 18 16 15 14 13 12 12 11 11 9 8 8 8 8 9 10 11 10 10 8 7
7 10 12 15 15 16 17 19 20 20 21 21 20 20 20 19 18 18 18 18 18 18 19 18 17 16 15 13 12 11 11 10 8 8 8 7 7 7 7 7 9 10 10 9
7 10 13 13 15 16 18 20 20 20 20 20 19 20 19 19 19 20 19 19 19 19 19 17 17 17 15 13 12 12 11 11 10 7 7 7 7 7 6 7 6 5 6 8
9 11 13 14 15 16 17 19 20 20 20 20 19 19 20 20 19 19 18 18 19 19 19 18 18 17 15 14 13 12 10 7 7 6 6 7 7 6 6 7 6 5 3 3
11 12 13 14 16 17 19 20 20 20 20 21 20 20 20 19 19 20 19 18 19 20 19 18 17 16 14 13 12 9 7 11 10 7 6 6 6 6 6 6 6 5 4 3
11 13 14 15 16 17 18 19 19 20 20 20 20 20 20 20 20 20 19 19 18 18 17 16 16 15 14 12 10 7 7 7 11 8 6 6 6 6 5 5 5 4 3 5
10 11 13 14 15 17 18 19 19 19 19 19 20 19 20 19 20 20 20 20 19 18 17 16 16 16 14 12 9 7 6 6 5 5 5 5 5 5 5 5 5 4 3 5
10 12 13 14 15 15 16 17 18 18 18 18 19 19 18 18 18 19 19 19 18 18 17 18 21 17 14 12 11 6 6 6 5 4 4 5 5 4 4 4 3 4 4 5
11 12 13 14 15 15 16 16 17 17 17 17 18 18 17 18 18 18 18 16 14 14 17 19 18 14 12 11 13 7 5 5 4 4 3 3 3 2 2 2 2 4 4 5
10 12 13 14 14 15 15 16 16 17 17 17 17 17 17 18 17 16 16 14 15 17 18 18 12 11 11 12 12 7 5 3 3 3 3 2 2 2 2 2 3 4 4 6
9 10 12 13 14 14 14 13 14 16 17 16 17 17 17 17 17 16 15 12 15 19 16 12 11 14 17 15 7 5 4 3 3 2 2 1 1 1 2 3 4 4 5 6
8 9 11 12 13 14 14 13 14 14 15 16 16 17 17 15 12 13 14 13 14 19 15 11 16 21 21 11 7 6 5 4 3 2 1 1 0 0 1 2 3 4 5 6
7 9 10 11 12 12 13 14 13 12 14 14 14 15 14 13 12 11 11 15 18 18 13 13 18 20 17 8 7 6 5 4 4 3 2 1 1 0 2 3 4 4 5 7
7 8 9 10 10 9 11 12 13 13 14 12 15 15 12 10 12 12 12 15 18 17 13 14 17 17 12 9 9 8 7 6 5 4 2 2 1 1 2 3 4 4 4 5
5 6 6 6 6 7 9 9 10 10 11 12 12 12 12 11 13 12 11 14 18 17 13 11 13 13 11 10 10 9 8 7 6 5 4 3 2 2 3 3 4 3 3 4
5 4 4 6 7 8 8 9 9 10 10 11 12 12 12 12 12 13 14 13 13 13 12 11 11 11 11 10 10 10 9 8 8 8 6 6 5 4 4 4 3 3 4 5
Wind_Direction
308 307 310 318 341 359 3 357 344 350 5 32 25 356 342 332 325 319 316 317 321 317 308 302 300 294 290 288 289 290 290 288 284 283 283 281 280 279 278 279 284 286 291 289
304 307 311 358 22 13 7 358 346 338 347 19 357 342 333 329 323 316 317 324 326 321 317 314 311 306 303 298 296 292 288 287 285 282 280 278 279 279 279 278 280 283 286 286
306 309 310 40 25 13 1 356 346 336 346 354 341 334 330 324 315 323 336 330 322 317 314 310 306 303 298 298 294 291 290 290 288 287 288 285 286 287 287 288 287 286 286 284
304 320 359 67 37 16 351 342 345 351 355 344 332 329 323 316 336 342 330 322 319 316 311 305 303 300 297 300 297 294 290 289 288 287 286 284 284 285 283 284 286 285 283 283
320 336 69 88 35 5 338 329 24 2 342 334 331 319 313 336 341 327 321 319 315 312 309 305 302 301 300 299 296 292 291 289 290 288 289 288 286 284 285 284 284 281 279 275
326 327 356 49 12 347 318 314 20 348 336 331 326 319 322 330 323 319 319 316 312 309 306 303 303 302 298 297 295 292 291 288 287 283 283 285 283 281 283 283 280 279 276 274
338 325 66 24 358 346 332 343 342 332 327 324 323 316 315 319 320 318 314 312 310 307 304 302 300 296 293 293 291 291 291 289 285 281 280 278 273 271 274 277 277 276 276 275
340 332 25 8 359 359 333 328 327 325 324 322 318 316 317 318 316 315 315 314 313 309 305 302 302 298 294 293 294 294 292 289 286 285 284 284 279 278 275 273 275 272 269 270
345 330 347 0 352 348 340 330 326 324 323 321 318 318 317 316 315 315 315 315 316 315 313 311 308 305 303 302 300 296 292 290 288 287 282 279 277 277 275 269 267 269 267 268
324 328 354 349 349 347 339 328 324 324 322 320 318 317 317 317 319 319 320 321 321 318 314 312 310 307 301 299 297 294 292 290 287 284 281 277 271 269 268 266 266 268 266 266
319 350 340 339 345 337 329 328 326 323 321 320 318 319 322 322 324 324 323 323 322 319 315 312 310 307 304 302 301 298 294 289 286 280 277 275 272 267 265 260 257 261 269 267
338 348 327 328 333 330 331 328 325 322 321 322 324 324 325 325 325 323 323 325 322 318 314 312 311 308 305 303 301 297 293 288 284 281 276 272 273 277 265 257 261 256 247 251
343 335 325 322 325 332 328 326 325 325 325 327 329 329 328 327 326 327 326 324 321 317 315 312 311 308 308 307 303 296 290 287 282 278 276 275 273 271 275 274 260 250 243 237
340 331 322 325 331 331 330 327 326 327 329 330 331 331 330 329 328 328 326 324 321 318 315 314 312 309 309 308 301 295 289 285 282 273 271 269 266 265 266 267 268 260 239 224
338 330 325 330 331 332 329 328 330 330 332 333 334 333 332 331 329 326 324 323 321 318 316 315 312 311 313 310 304 298 291 285 280 276 269 264 261 260 259 262 261 259 250 195
329 328 330 332 332 331 331 333 332 332 334 334 334 334 333 332 328 325 326 326 324 321 318 315 314 314 315 312 307 300 289 285 281 275 266 261 257 253 251 252 251 245 232 180
328 329 332 332 332 333 334 334 333 334 334 334 334 335 333 332 329 328 328 327 323 319 317 317 317 317 315 312 309 301 290 283 278 273 259 254 255 253 250 250 244 237 212 178
326 328 332 335 335 334 334 335 335 336 335 334 334 334 334 334 333 330 328 326 325 323 324 324 323 320 315 314 310 301 293 280 272 266 258 253 252 248 245 244 241 227 187 170
333 336 337 338 337 336 335 335 336 335 335 336 335 335 335 335 333 330 330 329 328 327 328 328 324 320 317 318 317 302 296 290 279 266 259 250 251 246 239 232 219 192 177 169
336 337 338 338 339 338 335 337 335 334 336 337 337 336 336 337 336 334 332 329 328 328 326 325 324 325 326 327 323 309 302 293 286 278 266 255 250 250 240 217 193 176 171 172
336 338 339 339 337 337 338 337 334 336 338 340 340 339 339 337 337 337 333 330 331 334 330 323 326 332 332 327 314 309 309 304 295 288 277 262 246 241 234 217 197 185 176 171
338 338 338 336 335 336 336 334 337 339 340 343 343 343 341 340 339 337 334 332 330 331 331 330 336 335 331 325 320 323 322 317 307 302 305 291 257 229 216 193 179 178 169 165
334 335 334 334 335 330 331 337 343 344 345 346 345 346 345 341 338 337 335 334 332 331 330 332 332 331 330 330 336 342 344 345 344 344 344 339 287 216 159 147 152 154 148 150
329 332 330 331 329 328 337 342 347 349 347 347 348 349 345 342 340 340 332 329 334 333 334 333 333 334 334 340 349 354 359 0 352 347 5 8 358 108 140 142 143 146 145 146
322 322 323 332 331 337 338 344 349 350 350 349 348 349 349 349 341 338 336 336 340 339 340 343 344 343 348 352 357 1 4 2 354 348 359 356 350 75 125 130 136 143 145 144
307 309 329 330 338 341 346 351 349 350 349 349 347 347 350 349 344 343 342 342 345 343 345 348 349 350 355 358 1 359 357 354 353 360 13 24 43 66 79 95 116 127 133 135
295 319 339 343 354 358 352 350 351 352 354 352 344 347 351 350 349 350 350 348 348 349 350 352 353 355 359 3 5 4 3 4 4 8 17 22 27 38 50 60 72 86 100 107